Weather in Borskoe

Russia / Samara Oblast     53°01′31″N   51°41′55″E
temp.,
°C
wind,
m/s
gust,
m/s
humid.,
%
clouds,
%
prec.,
mm/h
press.,
hPa
HPBL,
m
1 march, mon
mon101:00−14nnw379597 0.2 1014224
04:00−18nw339682 0.3 101643
07:00−20nw339824 0.0 101837
10:00−18nw359416 0.0 1020226
13:00−15nw348960 0.0 1021326
16:00−15nw469173 0.0 1022390
19:00−20wnw239640 0.0 102221
22:00−21w239820 0.0 102220
2 march, tue
tue201:00−20wsw2310038 0.0 102125
04:00−18sw369864 0.0 1019110
07:00−13ssw51094100 0.0 1015307
10:00−10sw71294100 0.3 1013499
13:00−6sw71394100 0.9 1009665
16:00−2sw81395100 2.0 1006754
19:00−2sw81496100 1.5 1003702
22:00−1wsw71397100 2.9 1002665
3 march, wed
wed301:000w4797100 1.0 1001369
04:00−4w359794 1.1 1002108
07:00−8wnw239699 0.1 100237
10:00−6w349582 0.1 1004191
13:00−4wnw349391 0.0 1004349
16:00−3wnw459390 0.1 1004440
19:00−4wnw3796100 0.1 1005355
22:00−8nw469496 0.3 1007134
4 march, thu
thu401:00−10wnw499567 0.1 1007269
04:00−13w369872 0.1 100999
07:00−14wsw469787 0.1 101089
10:00−10wsw6109473 0.1 1010329
13:00−7wsw61094100 0.1 1009426
16:00−5sw71392100 0.1 1008687
19:00−3sw81591100 0.3 1006907
22:00−2sw101794100 0.6 1004858
5 march, fri
fri501:00−1sw101689100 0.5 10021060
04:00−1sw101786100 0.6 1001966
07:00−1wsw101789100 0.1 1002897
10:000wsw91490100 0.4 10051006
13:00−1wnw5978100 0.6 1008626
16:00−2nw3682100 0.6 1011486
19:00−8nnw228591 0.0 101221
22:00−11n128270 0.0 101421